Location: Recife
(8.0585°S, 34.8848°W)
Time: 16:50:44
(UTC-03:00)

N. Korean satellite - Pass Details

Date: 25 September 2021
Orbit: 450 x 495 km, 97.3° (Epoch: 23 October)

Event Time Altitude Azimuth Distance (km) Brightness Sun altitude
Rises 03:53:30 0° 20° (NNE) 2,548 10.4 -19.1°
Reaches altitude 10° 03:55:36 10° 26° (NNE) 1,677 9.6 -18.6°
Maximum altitude 03:59:06 49° 102° (ESE) 642 7.6 -17.7°
Drops below altitude 10° 04:02:39 10° 177° (S) 1,700 9.4 -16.8°
Sets 04:04:47 0° 182° (S) 2,588 10.3 -16.3°
